Tracking 31027 objects as of 19-Jul-2025
HD Live streaming from Space Station
objects crossing your sky now

METEOR 3-2

Track METEOR 3-2 now!
10-day predictions
METEOR 3-2 is classified as:


NORAD ID: 19336
Int'l Code: 1988-064A
Perigee: 1,190.0 km
Apogee: 1,214.6 km
Inclination: 82.5 °
Period: 109.3 minutes
Semi major axis: 7573 km
RCS: 6.8041 m2 (large)
Launch date: July 26, 1988
Source: Commonwealth of Independent States (former USSR) (CIS)
Launch site: PLESETSK MISSILE AND SPACE COMPLEX (PKMTR)
Your satellite tracking list
ICEYE-X27
Track 1 satellite(s)




NASA's NSSDC Master Catalog

Two Line Element Set (TLE):
1 19336U 88064A   25199.82008332  .00000161  00000-0  38443-3 0  9993
2 19336  82.5414 206.8159 0016218 324.9356 209.2538 13.17268245777761
Source of the keplerian elements: AFSPC